[[{"header":{"parameterUnit":"m.s-1","parameterCategory":1,"la1":30.2991,"la2":30.254,"lo1":-89.0895,"lo2":-89.0444,"dy":0.0017,"dx":0.0017,"nx":28,"ny":28,"refTime":"2024-09-30T21:00:00:Z","depth":0,"parameterNumber":2,"parameterNumberName":"U-component_of_WINDS"},"data":[0,0,0,0,0,0,0,0,0,0,0,0,0,0,0,0,0,0,0,0,0,0,0,0,0,0,0,0,0,0,0,0,0,0,0,0,0,0,0,0,0,0,0,0,0,0,0,0,0,0,0,0,0,0,0,0,0,0,-0.2786,-0.2786,0,-0.2827,-0.2828,-0.2828,-0.2811,-0.281,-0.2809,-0.2808,-0.2852,-0.2855,-0.2857,0,0,0,0,0,0,0,0,0,0,0,0,0,-0.2691,-0.2693,-0.2785,-0.2786,-0.2787,-0.2827,-0.2828,-0.2828,-0.2811,-0.281,-0.2809,-0.2807,-0.2852,-0.2854,-0.2857,0,0,0,0,0,0,0,0,0,0,0,0,0,-0.2733,-0.2694,-0.2785,-0.2783,-0.2783,-0.2827,-0.2828,-0.2829,-0.2811,-0.281,-0.2808,-0.2807,-0.2851,-0.2854,-0.2857,-0.2907,0,0,-0.2867,-0.2868,0,0,0,0,0,0,0,0,-0.273,-0.2736,-0.2783,-0.2783,-0.2783,-0.2812,-0.2811,-0.2855,-0.2812,-0.2801,-0.2808,-0.2806,-0.284,-0.2844,-0.2856,-0.2909,-0.2911,-0.2867,-0.2869,-0.287,-0.2871,0,0,0,0,0,0,0,-0.2727,-0.2734,-0.2802,-0.2783,-0.2784,-0.278,-0.2784,-0.2819,-0.2829,-0.2801,-0.28,-0.2805,-0.284,-0.2853,-0.2857,-0.2912,-0.2867,-0.287,-0.2872,-0.2873,-0.3007,-0.3009,0,0,0,0,0,0,-0.2724,-0.2732,-0.2801,-0.2803,-0.2752,-0.2783,-0.2787,-0.2805,-0.2828,-0.283,-0.2807,-0.2804,-0.2848,-0.2853,-0.2858,-0.2917,-0.287,-0.2873,-0.2875,-0.3005,-0.3007,-0.3009,0,0,0,0,0,0,-0.2722,-0.2731,-0.2799,-0.2767,-0.2776,-0.2786,-0.2805,-0.2806,-0.2818,-0.2832,-0.2834,-0.2817,-0.2847,-0.2854,-0.2895,-0.2919,-0.2875,-0.2878,-0.3004,-0.3006,-0.3008,-0.3037,0,0,0,0,0,0,-0.272,-0.273,-0.2749,-0.2768,-0.2777,-0.2835,-0.2807,-0.2808,-0.2824,-0.2821,-0.2842,-0.2845,-0.2846,-0.289,-0.2898,-0.2922,-0.288,-0.3001,-0.3005,-0.3008,-0.3034,-0.304,-0.3045,0,0,0,0,0,-0.2717,-0.2756,-0.275,-0.2759,-0.2801,-0.2836,-0.2842,-0.2842,-0.2826,-0.2845,-0.2853,-0.2844,-0.2915,-0.2894,-0.2903,-0.2929,-0.3,-0.3004,-0.3007,-0.3031,-0.3039,-0.3045,0,0,0,0,0,0,-0.2741,-0.2759,-0.2752,-0.2799,-0.2816,-0.2833,-0.2858,-0.2851,-0.2873,-0.287,-0.287,-0.2875,-0.2918,-0.2927,-0.2904,-0.2978,-0.2955,-0.296,-0.297,-0.2977,-0.2983,-0.298,-0.2883,0,0,0,0,0,-0.2751,-0.2778,-0.2792,-0.2832,-0.2841,-0.2848,-0.2863,-0.2862,-0.288,-0.2887,-0.2899,-0.2917,-0.2943,-0.2961,-0.2986,-0.3035,-0.3039,-0.3057,-0.3063,-0.3067,-0.3072,-0.3098,-0.3106,-0.3021,-0.3021,-0.3021,0,0,-0.2774,-0.2787,-0.2804,-0.2837,-0.285,-0.2878,-0.2854,-0.2885,-0.2905,-0.2892,-0.2931,-0.294,-0.2961,-0.3006,-0.3026,-0.3015,-0.3097,-0.3072,-0.3076,-0.3078,-0.3103,-0.3111,-0.3118,-0.3024,-0.3024,-0.3023,0,0,-0.283,-0.2842,-0.2876,-0.289,-0.2909,-0.2913,-0.2922,-0.294,-0.2945,-0.2984,-0.2975,-0.2999,-0.3044,-0.3059,-0.3073,-0.3132,-0.3124,-0.314,-0.317,-0.3196,-0.3202,-0.3208,-0.3229,-0.3237,-0.3145,-0.3145,-0.3145,0,-0.2855,-0.2896,-0.2895,-0.2926,-0.2941,-0.2929,-0.2964,-0.2977,-0.3004,-0.3015,-0.3002,-0.3057,-0.307,-0.3118,-0.3133,-0.3144,-0.3153,-0.3138,-0.3201,-0.3207,-0.3213,-0.3233,-0.3241,-0.3147,-0.3146,-0.3146,-0.3146,0,-0.2927,-0.2955,-0.2981,-0.3006,-0.3024,-0.3057,-0.306,-0.3078,-0.3075,-0.308,-0.312,-0.3135,-0.3162,-0.3173,-0.3171,-0.3221,-0.3213,-0.3201,-0.3178,-0.3223,-0.3241,-0.3249,-0.3149,-0.3149,-0.3148,-0.3148,0,0,-0.3,-0.3023,-0.3033,-0.3044,-0.3064,-0.3087,-0.3118,-0.3144,-0.316,-0.3178,-0.3205,-0.3243,-0.3231,-0.3246,-0.3245,-0.3268,-0.3313,-0.3252,-0.3253,-0.3263,-0.3368,-0.3378,-0.3387,-0.3307,-0.3309,-0.331,-0.3367,0,-0.3057,-0.3113,-0.3112,-0.3163,-0.3189,-0.3178,-0.3205,-0.3221,-0.3226,-0.3249,-0.3256,-0.3282,-0.3265,-0.3274,-0.3295,-0.3303,-0.3334,-0.3299,-0.3332,-0.3334,-0.3328,-0.3397,-0.3407,-0.346,-0.3374,-0.3375,-0.3376,0,-0.3131,-0.3152,-0.3206,-0.3221,-0.3232,-0.3257,-0.328,-0.3302,-0.3319,-0.3322,-0.3338,-0.3333,-0.3365,-0.334,-0.3385,-0.3361,-0.3374,-0.338,-0.3382,-0.3385,-0.3358,-0.3402,-0.3477,-0.3485,-0.3388,-0.3387,-0.3386,0,-0.3179,-0.322,-0.3257,-0.3267,-0.3286,-0.3304,-0.3313,-0.3328,-0.3344,-0.3364,-0.3374,-0.3398,-0.3411,-0.343,-0.3431,-0.3413,-0.3476,-0.3451,-0.3479,-0.3479,-0.3493,-0.3492,-0.3571,-0.3501,-0.3501,-0.3501,-0.3501,0,-0.3243,-0.3277,-0.3279,-0.3302,-0.3339,-0.3337,-0.3374,-0.3381,-0.3395,-0.3419,-0.341,-0.3433,-0.3434,-0.3457,-0.3459,-0.3495,-0.3501,-0.3504,-0.3504,-0.3505,-0.3504,-0.3514,-0.351,-0.3503,-0.3503,-0.3502,-0.3502,0,-0.3303,-0.3306,-0.3346,-0.336,-0.3365,-0.3391,-0.3404,-0.3425,-0.3429,-0.346,-0.3467,-0.3474,-0.3501,-0.3504,-0.3536,-0.3536,-0.358,-0.3576,-0.3574,-0.3573,-0.36,-0.3598,-0.3688,-0.37,-0.3623,-0.3624,-0.3624,0,-0.3344,-0.337,-0.3386,-0.3401,-0.3411,-0.3436,-0.3451,-0.345,-0.3466,-0.3486,-0.3506,-0.3532,-0.3552,-0.3596,-0.3603,-0.3627,-0.3624,-0.3654,-0.3628,-0.3627,-0.3624,-0.3623,-0.3625,-0.3659,-0.366,-0.3661,-0.3661,0,-0.3416,-0.3416,-0.3438,-0.346,-0.3479,-0.3496,-0.3513,-0.3526,-0.3527,-0.3545,-0.3572,-0.3588,-0.3619,-0.3645,-0.3668,-0.3677,-0.367,-0.3669,-0.3677,-0.3678,-0.3676,-0.3677,-0.3588,-0.3668,-0.3667,-0.3667,-0.3666,-0.3666,-0.3468,-0.349,-0.3504,-0.3529,-0.3541,-0.3556,-0.3577,-0.3583,-0.3606,-0.3631,-0.3629,-0.3658,-0.3674,-0.3704,-0.3714,-0.3738,-0.3728,-0.3739,-0.3742,-0.3744,-0.3747,-0.3672,-0.3742,-0.3742,-0.3741,-0.3741,-0.3741,0,-0.354,-0.3548,-0.3571,-0.3594,-0.3613,-0.3603,-0.362,-0.3637,-0.3663,-0.3677,-0.3697,-0.3728,-0.3752,-0.3761,-0.3785,-0.3802,-0.3799,-0.3808,-0.3807,-0.3809,-0.3755,-0.3746,-0.381,-0.381,-0.381,-0.381,-0.381,-0.381,-0.3579,-0.3615,-0.3616,-0.3658,-0.3666,-0.3695,-0.3705,-0.3719,-0.3731,-0.3765,-0.3785,-0.379,-0.3803,-0.3827,-0.3849,-0.3851,-0.386,-0.3871,-0.3871,-0.382,-0.3813,-0.3807,-0.3798,-0.3873,-0.3873,-0.3924,-0.3924,-0.3925]},{"header":{"parameterUnit":"m.s-1","parameterCategory":1,"la1":30.2991,"la2":30.254,"lo1":-89.0895,"lo2":-89.0444,"dy":0.0017,"dx":0.0017,"nx":28,"ny":28,"refTime":"2024-09-30T21:00:00:Z","depth":0,"parameterNumber":3,"parameterNumberName":"V-component_of_WINDS"},"data":[0,0,0,0,0,0,0,0,0,0,0,0,0,0,0,0,0,0,0,0,0,0,0,0,0,0,0,0,0,0,0,0,0,0,0,0,0,0,0,0,0,0,0,0,0,0,0,0,0,0,0,0,0,0,0,0,0,0,-2.5877,-2.5878,0,-2.5978,-2.5979,-2.5981,-2.5972,-2.597,-2.5968,-2.5967,-2.6069,-2.6073,-2.6077,0,0,0,0,0,0,0,0,0,0,0,0,0,-2.5675,-2.5679,-2.5877,-2.5878,-2.588,-2.5978,-2.598,-2.5981,-2.5972,-2.597,-2.5968,-2.5966,-2.6067,-2.6072,-2.6077,0,0,0,0,0,0,0,0,0,0,0,0,0,-2.5768,-2.568,-2.5877,-2.5887,-2.5889,-2.5978,-2.598,-2.5981,-2.5972,-2.597,-2.5968,-2.5965,-2.6066,-2.6072,-2.6078,-2.6163,0,0,-2.6097,-2.61,0,0,0,0,0,0,0,0,-2.5763,-2.5775,-2.5884,-2.5886,-2.5889,-2.596,-2.5946,-2.6042,-2.5973,-2.5941,-2.5967,-2.5964,-2.6034,-2.6043,-2.6067,-2.6168,-2.6172,-2.6098,-2.6101,-2.6104,-2.6106,0,0,0,0,0,0,0,-2.5756,-2.5771,-2.5917,-2.5886,-2.5889,-2.5886,-2.5897,-2.5964,-2.5999,-2.5943,-2.5943,-2.5955,-2.6035,-2.6061,-2.6069,-2.6173,-2.6097,-2.6103,-2.6107,-2.6109,-2.6349,-2.6352,0,0,0,0,0,0,-2.5748,-2.5766,-2.5914,-2.592,-2.5819,-2.5892,-2.5904,-2.5939,-2.5998,-2.6005,-2.5957,-2.5954,-2.6052,-2.6062,-2.6073,-2.6176,-2.6104,-2.611,-2.6113,-2.6347,-2.635,-2.6353,0,0,0,0,0,0,-2.5743,-2.5761,-2.591,-2.5843,-2.5862,-2.5898,-2.5938,-2.5943,-2.5969,-2.6009,-2.6015,-2.5977,-2.605,-2.6064,-2.6141,-2.618,-2.6113,-2.6118,-2.6343,-2.6348,-2.6351,-2.6384,0,0,0,0,0,0,-2.5738,-2.5759,-2.5792,-2.5844,-2.5865,-2.5976,-2.594,-2.5946,-2.598,-2.5977,-2.6029,-2.6036,-2.6049,-2.6132,-2.6147,-2.6187,-2.6123,-2.634,-2.6345,-2.635,-2.638,-2.6389,-2.6396,0,0,0,0,0,-2.573,-2.5797,-2.5794,-2.5812,-2.5907,-2.5979,-2.5991,-2.6006,-2.5983,-2.6016,-2.6042,-2.6034,-2.6173,-2.6139,-2.6157,-2.6199,-2.6338,-2.6344,-2.635,-2.6376,-2.6387,-2.6396,0,0,0,0,0,0,-2.5748,-2.5804,-2.5801,-2.5886,-2.5928,-2.5977,-2.6019,-2.6017,-2.6066,-2.6061,-2.6077,-2.6089,-2.6166,-2.6191,-2.6152,-2.6285,-2.6252,-2.6262,-2.6266,-2.6277,-2.6285,-2.6278,-2.6128,0,0,0,0,0,-2.5762,-2.5816,-2.5862,-2.5933,-2.5954,-2.5983,-2.6015,-2.6023,-2.6066,-2.6084,-2.6115,-2.6157,-2.621,-2.6245,-2.6296,-2.6383,-2.6394,-2.6421,-2.6429,-2.6436,-2.6444,-2.6492,-2.6505,-2.6372,-2.6372,-2.6372,0,0,-2.5792,-2.5829,-2.5862,-2.5937,-2.597,-2.6026,-2.5998,-2.6057,-2.6098,-2.6092,-2.6167,-2.6192,-2.624,-2.6322,-2.636,-2.6345,-2.6483,-2.6444,-2.6449,-2.6453,-2.65,-2.6512,-2.6523,-2.6376,-2.6375,-2.6375,0,0,-2.5873,-2.5907,-2.597,-2.6004,-2.6055,-2.6074,-2.6089,-2.6139,-2.6155,-2.6231,-2.6228,-2.6276,-2.6368,-2.6402,-2.6432,-2.6527,-2.6522,-2.6543,-2.6587,-2.6634,-2.6644,-2.6654,-2.6688,-2.67,-2.6551,-2.6552,-2.6552,0,-2.5903,-2.5987,-2.6002,-2.6063,-2.6096,-2.6094,-2.6158,-2.619,-2.6255,-2.6278,-2.626,-2.6375,-2.6407,-2.6498,-2.6521,-2.6545,-2.6563,-2.6537,-2.6642,-2.6651,-2.666,-2.6693,-2.6706,-2.6554,-2.6554,-2.6553,-2.6553,0,-2.6021,-2.6079,-2.6124,-2.6187,-2.6226,-2.6288,-2.6312,-2.6349,-2.6354,-2.6375,-2.6452,-2.6491,-2.655,-2.6572,-2.6577,-2.6664,-2.6653,-2.6638,-2.6606,-2.6675,-2.6706,-2.6719,-2.6557,-2.6556,-2.6556,-2.6555,0,0,-2.6116,-2.6188,-2.6205,-2.6234,-2.629,-2.6335,-2.6397,-2.6456,-2.6487,-2.6532,-2.6584,-2.6662,-2.6649,-2.6682,-2.6691,-2.6733,-2.6806,-2.6713,-2.6714,-2.6729,-2.6904,-2.6915,-2.6929,-2.6803,-2.6806,-2.6808,-2.69,0,-2.6204,-2.6314,-2.633,-2.6427,-2.6481,-2.648,-2.6534,-2.6574,-2.6596,-2.6644,-2.6668,-2.6723,-2.6702,-2.6722,-2.6763,-2.6789,-2.6842,-2.6782,-2.6852,-2.6854,-2.684,-2.6946,-2.6957,-2.7043,-2.6913,-2.6915,-2.6916,0,-2.632,-2.637,-2.6472,-2.6522,-2.6545,-2.6593,-2.6649,-2.6695,-2.6741,-2.6753,-2.6791,-2.6796,-2.6859,-2.6824,-2.6913,-2.6872,-2.6901,-2.6918,-2.6922,-2.6929,-2.6889,-2.6955,-2.707,-2.7083,-2.6936,-2.6934,-2.6933,0,-2.638,-2.6472,-2.6545,-2.657,-2.6629,-2.6663,-2.669,-2.6733,-2.6768,-2.6816,-2.6839,-2.6893,-2.6923,-2.6966,-2.6984,-2.6957,-2.7071,-2.7038,-2.7084,-2.7083,-2.7108,-2.7106,-2.7229,-2.7126,-2.7126,-2.7126,-2.7126,0,-2.6476,-2.6539,-2.6573,-2.6618,-2.6688,-2.6706,-2.6775,-2.68,-2.6839,-2.6889,-2.6891,-2.6938,-2.696,-2.701,-2.7025,-2.7096,-2.7109,-2.7121,-2.7124,-2.7121,-2.7119,-2.714,-2.7135,-2.7129,-2.7129,-2.7128,-2.7127,0,-2.6554,-2.6579,-2.6659,-2.671,-2.6724,-2.6774,-2.6816,-2.686,-2.6881,-2.6945,-2.696,-2.6994,-2.7053,-2.7076,-2.7148,-2.7158,-2.7239,-2.7238,-2.7224,-2.7225,-2.727,-2.7265,-2.741,-2.7431,-2.7315,-2.7316,-2.7317,0,-2.6614,-2.6662,-2.6718,-2.6752,-2.678,-2.6834,-2.687,-2.6889,-2.6926,-2.6982,-2.7019,-2.7078,-2.7126,-2.7221,-2.7251,-2.7306,-2.7306,-2.7353,-2.7314,-2.731,-2.7307,-2.7304,-2.7309,-2.736,-2.7361,-2.7362,-2.7363,0,-2.6717,-2.6727,-2.6779,-2.6835,-2.6877,-2.6922,-2.6966,-2.6993,-2.7019,-2.7061,-2.7121,-2.7159,-2.7233,-2.7291,-2.7348,-2.7375,-2.7374,-2.7375,-2.7389,-2.7386,-2.7376,-2.7382,-2.7244,-2.7372,-2.7371,-2.737,-2.737,-2.7369,-2.6788,-2.6831,-2.6878,-2.6935,-2.697,-2.7011,-2.7055,-2.7082,-2.7133,-2.7195,-2.7204,-2.7269,-2.7314,-2.739,-2.7419,-2.747,-2.7458,-2.7477,-2.7482,-2.7487,-2.749,-2.7368,-2.7481,-2.748,-2.748,-2.748,-2.748,0,-2.6891,-2.6921,-2.6974,-2.7036,-2.7081,-2.7076,-2.7124,-2.7162,-2.722,-2.7262,-2.731,-2.738,-2.7437,-2.7472,-2.753,-2.7564,-2.7565,-2.7578,-2.7576,-2.7582,-2.7498,-2.7481,-2.7577,-2.7577,-2.7577,-2.7577,-2.7577,-2.7577,-2.6951,-2.7024,-2.704,-2.713,-2.716,-2.7224,-2.7252,-2.729,-2.7324,-2.7402,-2.745,-2.7473,-2.7512,-2.7573,-2.7625,-2.7634,-2.7655,-2.767,-2.7677,-2.7598,-2.7588,-2.7578,-2.7562,-2.7674,-2.7674,-2.7757,-2.7758,-2.7759]}]]